Japanese version Home page |
Updated on April 23, 2005 |
Profile
|
Orbital ElementsEpoch 2003 Nov. 17.0 TT = JDT 2452960.5 T 2003 Nov. 6.29309 TT MPC q 11.4264292 (2000.0) P Q z -0.0006123 Peri. 346.68500 -0.78063901 -0.62206901 +/-0.0000160 Node 154.54453 +0.58549055 -0.76164096 e 1.0069965 Incl. 8.06132 +0.21864024 -0.18147506
|
Finding Charts
|
Magnitudes Graphm1 = 3.2 + 5 log d + 10.0 log r
|
The orbital elements are published on M.P.E.C. 2003-G49.
|